[TLELIST] Archives

 

[TLELIST] Current TLEs

August 27th 2024 PDT

HST 1 20580U 90037B 24239.65236288 .00008633 00000-0 39280-3 0 9999 2 20580 28.4675 232.6467 0002498 96.5904 263.4973 15.18929464687751 ISS (ZARYA) 1 25544U 98067A 24240.33707446 .00026777 00000-0 47262-3 0 9999 2 25544 51.6405 322.8286 0006393 278.3810 190.5363 15.50159888469583 CXO 1 25867U 99040B 24241.90789245 .00000809 00000-0 00000-0 0 9994 2 25867 42.7383 147.6553 8819176 300.5585 0.5700 0.37805591 14830 ...Continue Reading

[TLELIST] Current TLEs

August 27th 2024 PDT

HST 1 20580U 90037B 24239.65236288 .00008633 00000-0 39280-3 0 9999 2 20580 28.4675 232.6467 0002498 96.5904 263.4973 15.18929464687751 ISS (ZARYA) 1 25544U 98067A 24240.33707446 .00026777 00000-0 47262-3 0 9999 2 25544 51.6405 322.8286 0006393 278.3810 190.5363 15.50159888469583 CXO 1 25867U 99040B 24241.90789245 .00000809 00000-0 00000-0 0 9994 2 25867 42.7383 147.6553 8819176 300.5585 0.5700 0.37805591 14830 ...Continue Reading

[TLELIST] Current TLEs

August 26th 2024 PDT

HST 1 20580U 90037B 24238.66678998 .00009040 00000-0 41191-3 0 9994 2 20580 28.4678 239.2619 0002499 86.7571 273.3307 15.18913219687604 ISS (ZARYA) 1 25544U 98067A 24239.42873469 .00020323 00000-0 36164-3 0 9996 2 25544 51.6391 327.3293 0006373 276.4665 160.1275 15.50103175469448 CXO 1 25867U 99040B 24241.90701197 .00000809 00000-0 00000-0 0 9994 2 25867 42.7383 147.6553 8819165 300.5586 0.4492 0.37805641 14832 ...Continue Reading

[TLELIST] Current TLEs

August 25th 2024 PDT

HST 1 20580U 90037B 24237.35267552 .00009293 00000-0 42398-3 0 9999 2 20580 28.4679 248.0822 0002498 73.9582 286.1285 15.18890356687409 ISS (ZARYA) 1 25544U 98067A 24238.40471683 .00031356 00000-0 55359-3 0 9990 2 25544 51.6406 332.4036 0006358 271.4292 207.0715 15.50066295469284 CXO 1 25867U 99040B 24239.26279011 .00000750 00000-0 00000-0 0 9990 2 25867 42.6738 147.8820 8822196 300.3954 0.5606 0.37809314 14827 ...Continue Reading

[TLELIST] Current TLEs

August 24th 2024 PDT

HST 1 20580U 90037B 24237.22126306 .00009121 00000-0 41602-3 0 9993 2 20580 28.4679 248.9641 0002494 72.7988 287.2877 15.18887623687648 ISS (ZARYA) 1 25544U 98067A 24237.37166940 .00034677 00000-0 61243-3 0 9990 2 25544 51.6404 337.5221 0006373 267.3754 202.7913 15.50005774469128 CXO 1 25867U 99040B 24239.26279011 .00000750 00000-0 00000-0 0 9990 2 25867 42.6738 147.8820 8822196 300.3954 0.5606 0.37809314 14827 ...Continue Reading

[TLELIST] Current TLEs

August 23rd 2024 PDT

HST 1 20580U 90037B 24235.77571093 .00010346 00000-0 47338-3 0 9991 2 20580 28.4679 258.6666 0002434 57.4332 302.6496 15.18863546687164 ISS (ZARYA) 1 25544U 98067A 24236.40034515 -.00014822 00000-0 -25287-3 0 9995 2 25544 51.6393 342.3357 0006238 259.6285 187.0615 15.49903904468978 CXO 1 25867U 99040B 24239.26253145 .00000750 00000-0 00000+0 0 9999 2 25867 42.6738 147.8821 8822195 300.3953 0.5253 0.37809552 25987 ...Continue Reading

[TLELIST] Current TLEs

August 22nd 2024 PDT

HST 1 20580U 90037B 24234.46155105 .00012126 00000-0 55667-3 0 9990 2 20580 28.4681 267.4873 0002366 42.6042 317.4734 15.18840535686962 ISS (ZARYA) 1 25544U 98067A 24235.16000531 .00028314 00000-0 49252-3 0 9995 2 25544 51.6402 348.4828 0004893 236.4095 123.6428 15.50549723468780 CXO 1 25867U 99040B 24236.61953662 .00000805 00000-0 00000+0 0 9997 2 25867 42.5803 148.1717 8823685 300.1910 0.7997 0.37807121 25979 ...Continue Reading

[TLELIST] Current TLEs

August 21st 2024 PDT

HST 1 20580U 90037B 24233.47591758 .00011572 00000-0 53121-3 0 9995 2 20580 28.4681 274.1027 0002301 32.9353 327.1383 15.18817322686814 ISS (ZARYA) 1 25544U 98067A 24234.33892355 .00029655 00000-0 51607-3 0 9992 2 25544 51.6414 352.5483 0005315 226.6605 227.1975 15.50510042468659 CXO 1 25867U 99040B 24236.61953662 .00000805 00000-0 00000+0 0 9997 2 25867 42.5803 148.1717 8823685 300.1910 0.7997 0.37807121 25979 ...Continue Reading

[TLELIST] Current TLEs

August 21st 2024 PDT

HST 1 20580U 90037B 24233.47591758 .00011572 00000-0 53121-3 0 9995 2 20580 28.4681 274.1027 0002301 32.9353 327.1383 15.18817322686814 ISS (ZARYA) 1 25544U 98067A 24234.33892355 .00029655 00000-0 51607-3 0 9992 2 25544 51.6414 352.5483 0005315 226.6605 227.1975 15.50510042468659 CXO 1 25867U 99040B 24236.61953662 .00000805 00000-0 00000+0 0 9997 2 25867 42.5803 148.1717 8823685 300.1910 0.7997 0.37807121 25979 ...Continue Reading

[TLELIST] Current TLEs

August 21st 2024 PDT

HST 1 20580U 90037B 24233.47591758 .00011572 00000-0 53121-3 0 9995 2 20580 28.4681 274.1027 0002301 32.9353 327.1383 15.18817322686814 ISS (ZARYA) 1 25544U 98067A 24234.33892355 .00029655 00000-0 51607-3 0 9992 2 25544 51.6414 352.5483 0005315 226.6605 227.1975 15.50510042468659 CXO 1 25867U 99040B 24236.61953662 .00000805 00000-0 00000+0 0 9997 2 25867 42.5803 148.1717 8823685 300.1910 0.7997 0.37807121 25979 ...Continue Reading
  • This mailing list is a public mailing list - anyone may join or leave, at any time.
  • This mailing list is announce-only.

International Space Station (ISS) / Hubble Space Telescope (HST) / Chandra X-Ray Observatory Orbital Data via EMAIL

Privacy Policy:

Private list